RH
77 93 95 96 95 85 72 66 34 22 26 26 34 16 6 4 3 3 3 4 4 16 22 20 25 25 41 43 44 55 35 30 34 33 29 29 27 23 27 21 26 32 25 22 23 24 27
71 95 96 98 98 96 95 95 86 61 59 47 26 8 3 2 3 3 3 3 10 24 29 30 32 29 53 29 47 50 34 37 37 31 28 30 33 29 28 24 25 33 34 32 26 27 27
74 85 97 98 97 97 98 98 95 94 93 88 38 8 4 3 4 9 14 13 21 29 30 31 29 47 35 46 46 42 39 41 41 39 31 36 34 32 31 28 34 32 39 30 31 30 29
63 75 91 89 96 97 98 95 95 94 92 75 51 18 8 8 19 25 22 18 23 30 29 28 29 43 38 38 47 40 36 36 40 40 41 43 37 34 30 32 29 32 28 34 29 33 35
60 83 97 96 96 96 96 97 95 91 85 46 8 8 10 12 24 25 22 22 31 33 30 31 46 39 44 37 39 41 40 34 37 39 42 37 37 36 36 37 32 29 35 30 34 32 37
66 86 92 96 96 96 96 96 94 89 70 19 10 12 16 13 20 22 23 26 31 37 29 42 29 34 31 38 40 42 38 38 34 35 41 47 44 42 43 38 45 26 26 22 21 32 33
59 63 82 96 96 96 96 97 94 87 54 15 14 22 19 18 26 22 34 41 46 40 32 40 36 24 27 34 36 36 39 37 36 36 37 36 42 46 32 28 26 25 27 24 22 20 31
60 68 86 88 93 96 96 96 94 75 40 6 10 26 21 22 29 33 45 45 67 71 44 36 35 32 30 35 32 35 36 38 32 40 29 36 43 30 28 29 28 28 31 32 26 21 20
62 66 83 94 97 96 91 92 85 60 23 7 10 25 20 26 37 48 50 71 72 68 58 37 34 33 34 35 36 41 36 36 37 37 30 36 29 27 29 29 30 31 32 29 27 21 22
62 67 78 84 88 90 92 86 72 46 10 4 9 25 20 23 47 47 60 63 69 68 52 40 39 39 34 33 43 39 38 41 34 36 37 32 31 33 33 34 28 31 24 26 29 33 46
65 57 61 87 90 83 86 77 42 27 7 4 12 27 24 22 48 49 53 58 69 69 70 35 38 32 25 37 37 46 41 41 40 37 34 34 29 34 37 29 24 25 31 34 32 37 42
63 56 49 67 84 90 89 78 60 10 6 4 15 30 30 45 49 44 48 64 70 72 70 39 32 31 28 22 28 36 39 39 35 39 35 37 29 34 37 38 35 30 30 31 32 36 77
64 59 58 50 66 88 79 67 46 15 4 3 18 33 27 34 47 46 57 71 61 70 23 35 38 30 26 24 26 25 36 43 48 63 45 34 27 35 35 41 30 32 46 78 63 83 60
68 63 62 65 59 71 81 67 48 26 4 5 24 38 42 28 39 54 62 47 40 28 27 37 33 29 24 32 26 22 35 46 42 43 50 62 63 37 31 41 47 46 45 79 64 55 42
75 66 67 68 87 86 82 71 35 10 4 12 34 55 50 35 42 60 56 53 66 40 38 37 30 29 28 29 33 21 39 46 48 47 57 62 40 25 35 30 32 34 42 38 55 50 71
79 73 69 73 87 79 67 37 17 6 4 23 54 43 37 22 41 53 43 36 45 45 42 37 31 25 24 32 30 23 35 39 46 41 42 49 66 28 29 24 23 33 28 59 56 73 56
85 71 67 77 82 76 53 35 6 4 4 25 57 46 42 30 39 50 46 51 50 40 47 50 40 34 33 37 38 29 38 48 40 40 38 36 46 34 29 23 27 30 42 37 39 51 68
92 72 71 77 65 67 48 27 8 5 10 26 42 44 26 37 53 38 46 49 53 45 39 47 45 45 43 44 40 37 48 48 36 34 39 40 47 56 27 18 20 23 26 25 56 50 45
96 81 73 73 68 54 30 17 7 5 14 42 44 37 29 36 42 41 46 47 44 40 43 42 49 45 43 44 37 42 54 48 42 34 32 26 30 42 23 36 26 27 22 26 30 40 51
92 79 72 64 61 40 22 12 7 6 15 30 40 46 40 36 30 33 42 45 52 43 42 37 42 37 38 41 40 45 47 49 40 28 36 31 33 38 56 44 34 34 29 28 34 80 62
89 80 69 70 58 33 17 13 7 9 18 32 35 41 48 38 31 32 28 39 46 48 39 35 37 34 30 28 34 30 29 30 34 46 40 33 47 40 36 35 36 35 29 28 39 48 70
90 55 65 72 61 33 16 18 10 12 21 38 43 37 34 38 32 31 39 37 38 43 39 42 38 32 24 22 23 21 25 27 31 45 34 32 52 39 47 37 35 31 28 27 38 52 56
90 80 88 73 70 27 21 18 14 18 28 38 41 36 41 44 32 28 39 40 41 47 42 32 28 31 32 42 40 39 37 36 34 35 37 39 50 50 56 37 38 42 68 64 57 62 74
95 81 89 85 67 39 29 22 16 16 24 40 45 33 36 39 34 40 44 41 43 37 46 35 29 29 51 38 39 39 41 41 39 41 39 51 52 50 67 58 81 86 58 78 77 76 82
96 84 91 87 75 58 34 24 19 16 18 26 39 46 37 40 42 44 42 47 46 40 43 43 46 46 42 44 46 34 40 43 46 43 48 47 60 74 79 62 46 80 73 74 79 88 85
93 95 91 84 84 70 42 30 17 19 22 26 49 57 48 50 46 38 45 37 43 45 49 53 44 45 48 47 36 44 34 31 40 50 41 47 60 86 72 81 74 93 64 44 80 99 75
93 91 91 87 96 71 45 34 25 20 23 23 53 59 51 66 60 46 49 45 42 40 53 47 42 53 44 50 44 44 43 40 51 46 59 59 70 84 79 77 92 74 56 43 91 89 62
93 90 92 92 96 78 58 37 28 22 25 30 73 65 62 83 68 61 56 62 52 48 59 56 64 65 63 67 51 55 56 56 51 37 49 50 69 81 81 84 93 51 44 69 78 57 54
93 96 91 90 93 88 59 36 25 22 22 38 70 56 58 79 78 73 73 69 69 66 60 65 58 61 85 90 78 76 59 47 53 73 54 82 79 88 76 84 76 47 61 47 50 60 58
Wind_Speed
6 7 8 8 8 8 9 10 11 11 12 12 13 14 15 15 14 14 13 12 11 11 10 8 6 3 2 3 4 4 4 6 7 6 5 5 6 4 5 5 2 5 6 3 4 1 5
10 8 8 9 10 10 11 11 12 12 13 13 13 13 14 14 15 14 13 11 10 9 7 5 3 1 1 2 3 3 3 6 6 6 4 8 5 5 5 4 2 4 6 8 6 7 5
11 8 9 10 11 12 13 13 14 14 14 15 15 14 14 14 15 14 13 10 9 6 4 3 1 2 3 3 2 3 3 3 5 5 3 4 4 3 7 5 6 5 6 8 11 7 4
11 9 8 9 11 13 14 15 15 16 16 15 16 15 14 13 13 15 13 10 6 3 3 2 2 0 3 1 3 3 2 0 3 3 2 2 3 5 3 4 4 3 5 4 6 9 3
9 7 9 10 12 14 15 16 16 17 17 17 15 14 14 14 11 15 12 7 3 4 3 2 2 3 5 3 1 3 3 3 2 1 2 3 3 3 3 3 4 6 4 7 3 6 4
7 5 8 10 12 14 15 16 16 17 16 16 14 14 14 13 11 14 9 4 2 3 4 2 3 2 2 2 2 3 2 3 3 3 3 3 3 2 3 4 4 4 4 6 5 7 6
9 7 6 9 12 14 15 16 16 17 17 16 14 14 15 14 10 12 8 4 2 0 8 4 4 1 3 2 1 1 3 4 3 4 3 2 2 6 9 7 6 4 7 9 8 4 7
10 7 7 9 11 13 15 16 17 16 17 15 13 14 16 13 7 9 7 4 3 1 2 2 2 3 2 1 2 5 5 3 2 5 4 2 5 5 4 5 4 6 9 9 9 10 3
10 7 8 10 11 13 14 15 16 17 16 14 13 14 14 10 4 8 10 4 1 1 3 3 2 2 2 4 4 3 5 3 3 5 4 5 5 2 3 6 6 8 8 8 10 10 5
9 7 9 9 11 13 13 14 14 15 14 14 13 13 12 7 2 3 3 4 2 2 2 3 3 2 2 1 2 2 3 1 3 3 6 7 5 3 5 7 7 7 6 7 8 8 4
8 7 8 10 12 12 13 13 13 14 13 13 12 12 9 9 4 2 3 3 0 0 3 1 3 1 1 2 1 2 1 3 3 6 2 5 4 4 6 5 7 3 7 7 6 8 9
9 8 7 9 11 12 13 14 14 12 12 12 9 7 8 5 4 3 4 1 1 2 4 3 1 1 3 1 2 4 3 3 1 4 6 9 3 3 2 9 6 6 6 9 9 5 5
11 9 8 8 8 12 13 14 14 13 11 11 7 5 6 4 2 5 1 3 2 2 1 3 1 1 3 1 2 3 5 7 4 6 4 7 5 4 2 5 5 4 4 4 4 2 9
12 8 8 9 8 9 12 13 14 14 11 10 5 2 3 4 2 0 1 1 2 2 3 1 1 4 2 4 3 1 3 4 9 5 3 3 2 4 7 5 5 6 4 3 5 4 7
11 9 7 8 9 10 11 13 14 13 11 8 2 2 2 5 1 2 2 1 2 5 3 4 3 3 4 3 2 1 5 4 4 7 4 5 3 2 7 3 2 3 4 4 5 9 6
11 9 7 6 8 10 12 12 13 12 10 6 3 3 4 7 1 1 1 2 2 3 3 2 2 1 4 4 3 1 6 1 3 5 7 2 6 6 3 5 5 5 6 4 4 5 13
12 9 6 5 7 10 12 13 11 10 8 2 3 3 0 1 2 2 2 3 4 4 4 5 5 2 3 3 2 4 5 3 3 4 4 4 4 3 9 2 5 5 4 4 2 3 4
13 8 6 5 5 9 11 13 12 9 3 2 3 2 3 2 2 1 2 4 3 3 3 1 2 3 3 3 3 2 3 5 4 3 3 4 4 4 7 12 6 10 5 3 1 4 5
13 8 6 4 5 8 10 11 11 6 2 4 2 1 3 2 2 3 4 3 5 1 4 2 3 3 1 1 2 3 5 6 5 4 4 3 2 5 2 4 3 6 5 5 6 5 10
13 9 5 1 4 7 9 12 11 4 3 4 1 1 1 1 1 2 5 4 3 4 2 3 2 1 1 2 2 1 2 3 4 2 0 2 3 5 5 6 5 7 9 8 6 1 6
13 9 4 1 2 6 8 11 10 2 6 4 2 1 1 1 1 3 3 4 5 3 2 1 2 2 1 1 1 3 3 4 6 3 4 2 4 6 7 6 8 12 11 8 4 4 2
15 10 6 2 1 4 6 11 9 3 9 2 2 3 1 2 2 5 1 2 4 3 1 2 2 5 1 2 3 3 2 3 4 5 3 3 4 5 4 10 11 11 8 11 1 3 5
17 12 7 4 1 3 5 9 9 4 8 3 1 1 1 0 1 2 1 4 4 7 3 4 3 4 3 3 5 5 5 6 5 4 4 3 3 4 6 7 8 8 1 1 3 4 2
18 13 9 6 3 5 6 7 10 2 9 5 4 3 2 2 2 1 4 4 7 2 3 3 1 2 3 4 5 5 6 6 7 7 6 4 4 5 6 6 8 1 6 5 3 5 2
18 15 10 7 6 5 6 9 10 10 4 7 6 2 2 4 6 5 8 8 7 6 5 5 4 3 4 3 3 4 3 3 7 6 6 6 2 3 2 5 6 4 3 3 3 4 6
19 15 11 8 7 6 7 10 13 9 11 15 14 8 4 5 4 6 6 5 4 4 3 3 1 4 3 2 1 3 2 3 2 5 5 6 5 3 3 6 8 3 5 8 5 3 5
21 16 12 11 8 9 9 11 11 11 11 10 11 9 6 4 4 4 3 3 3 2 3 3 2 2 1 2 3 3 2 3 2 3 4 2 3 7 8 6 3 2 9 8 4 5 10
22 18 14 12 11 11 11 11 11 12 10 9 13 9 4 3 6 11 7 7 2 3 2 1 1 1 1 1 1 1 0 1 2 2 3 1 2 2 3 2 3 6 1 2 3 7 11
24 21 17 15 12 12 13 11 11 9 9 15 12 12 15 10 6 18 19 17 12 13 2 3 1 4 2 2 3 3 3 3 3 2 4 1 2 1 1 1 3 4 7 4 7 8 10
Wind_Direction
354 17 18 18 14 9 8 2 356 351 349 346 343 344 344 342 339 336 333 330 336 333 334 335 337 353 75 223 83 360 348 5 9 355 356 339 292 312 277 354 85 229 292 12 287 222 253
355 5 0 4 0 0 360 354 349 348 346 344 344 347 346 343 340 339 337 332 334 331 338 343 354 73 273 216 52 360 14 29 9 351 15 360 10 342 278 297 279 1 321 288 270 231 230
345 346 353 355 355 354 352 350 348 345 344 344 345 347 348 346 342 339 338 336 331 329 351 9 52 61 262 67 29 54 39 38 26 20 329 37 345 302 357 273 15 289 300 277 225 206 251
337 337 346 351 350 349 348 348 346 345 344 345 343 346 349 351 349 344 338 337 327 355 25 54 80 125 61 12 131 37 351 12 41 32 54 333 319 282 242 353 238 246 237 298 347 144 136
332 339 344 348 350 347 347 346 345 345 345 345 347 349 352 350 349 352 343 342 18 47 46 85 6 256 102 95 95 2 357 335 322 308 333 301 282 303 127 233 273 197 238 241 174 183 131
313 332 345 346 345 347 344 343 344 345 344 345 348 347 349 351 345 351 347 6 35 48 3 326 274 221 146 73 35 331 348 333 307 310 241 231 228 232 222 217 224 306 283 298 274 197 206
303 315 340 343 345 344 342 342 344 344 345 344 346 347 346 350 356 359 4 338 251 174 44 31 25 344 75 50 38 94 359 302 243 232 270 181 271 227 241 223 250 347 289 275 280 250 205
303 318 334 338 342 342 342 343 343 344 343 347 343 346 348 352 9 19 27 47 55 335 196 104 115 119 80 319 194 78 344 286 218 285 155 203 232 22 17 8 342 289 273 276 279 269 289
301 312 325 337 338 341 343 344 344 344 342 343 343 347 349 351 12 35 72 71 75 22 265 118 70 38 43 313 42 55 331 354 312 296 265 265 335 86 356 306 274 258 253 273 279 291 283
285 303 317 325 332 338 340 342 344 343 340 342 342 350 355 353 19 32 51 351 13 98 178 136 157 104 184 348 148 4 27 359 239 325 333 268 70 354 298 270 270 286 350 339 325 338 260
271 282 305 320 328 334 338 340 341 341 341 342 343 353 3 31 339 27 303 322 66 278 357 62 103 94 118 316 140 122 355 246 288 321 37 272 353 353 303 285 335 260 18 317 310 297 311
262 270 287 309 326 331 336 338 339 336 337 341 341 354 4 6 3 355 331 12 334 56 251 124 63 291 236 185 123 142 209 190 131 279 231 256 235 201 308 325 293 341 308 281 252 233 271
257 268 283 299 320 328 334 335 336 336 335 338 338 338 19 12 343 327 40 274 352 162 71 100 36 345 334 45 145 2 71 40 33 16 359 333 273 111 92 287 234 183 292 319 307 163 235
247 256 279 305 319 326 331 334 336 335 334 335 332 324 326 360 327 208 327 259 257 11 81 197 257 275 277 1 114 71 206 157 49 345 294 309 307 22 20 39 324 297 285 201 267 237 286
242 250 278 301 321 328 334 334 337 335 336 336 343 310 241 291 334 114 266 260 314 20 9 346 237 253 144 149 319 158 62 43 47 11 355 352 250 8 75 355 348 337 338 346 293 286 273
230 251 275 296 318 325 331 334 336 337 336 337 328 255 152 323 137 231 254 216 100 39 324 261 284 2 339 95 310 266 144 37 92 35 335 62 293 261 60 3 297 71 346 341 310 278 261
217 235 261 290 319 326 332 332 333 334 339 7 309 276 30 330 136 242 246 58 113 68 340 355 359 315 82 5 348 306 68 70 45 23 303 14 226 332 2 267 11 335 353 353 337 273 290
206 221 251 277 320 328 331 334 336 331 4 73 294 266 359 143 283 261 44 24 317 93 17 36 10 15 343 49 303 272 72 68 54 8 343 62 299 283 277 292 78 69 44 23 152 307 322
195 210 226 278 334 333 333 332 337 330 231 132 232 52 11 119 248 153 129 81 37 34 26 8 112 5 341 72 299 33 103 130 76 27 25 32 278 314 172 53 86 74 1 336 285 261 263
186 198 218 247 346 335 329 336 341 315 209 174 290 225 160 128 243 288 145 158 122 16 65 27 101 265 185 182 98 56 177 137 90 348 13 49 257 220 246 314 327 302 309 288 268 166 300
177 190 187 149 1 329 334 341 342 281 182 183 186 115 51 129 74 58 48 125 132 148 78 328 113 328 356 200 189 216 60 143 138 138 188 271 256 263 273 310 300 282 276 291 299 311 232
173 178 176 150 7 329 349 349 347 183 162 154 165 151 130 67 330 118 25 59 148 104 325 152 270 128 230 293 18 22 91 156 254 162 237 184 273 299 277 265 265 276 282 291 281 307 283
167 166 161 155 68 8 12 10 4 176 166 117 111 83 92 137 142 263 91 112 92 119 48 30 90 157 197 50 19 356 342 323 303 286 266 230 252 293 273 302 318 285 319 14 320 77 315
166 162 162 148 99 43 28 25 24 63 192 153 155 158 142 125 73 42 114 109 117 48 123 133 73 323 50 330 298 246 239 248 247 246 228 261 267 264 280 291 278 92 48 84 14 281 62
161 157 157 134 111 78 54 48 39 42 101 162 125 108 105 104 109 99 117 106 109 81 81 117 54 43 339 289 270 259 191 205 218 218 208 209 265 290 249 279 301 113 27 23 88 307 42
157 153 146 131 120 95 71 66 53 65 92 99 78 83 73 121 35 124 125 168 144 125 157 100 104 17 313 286 262 253 259 54 149 158 187 195 193 156 301 280 281 70 6 329 84 254 5
155 147 148 135 121 105 80 69 70 63 77 97 69 74 83 102 17 352 85 110 27 62 81 129 145 204 80 263 250 248 276 61 257 293 157 215 230 233 252 280 104 22 316 285 64 265 332
147 151 153 140 123 106 87 74 73 68 79 107 66 73 100 88 48 50 42 61 22 8 128 133 106 307 266 232 339 317 134 92 341 296 12 352 348 312 349 327 289 2 258 76 263 340 338
151 153 152 137 124 109 94 78 71 74 87 95 59 84 104 84 94 90 69 53 44 33 62 6 85 28 9 2 18 359 341 356 347 280 37 51 39 286 82 136 125 352 94 72 15 344 332